Flag for Ukraine Weather past 2 weeks in Kyiv, Ukraine

Now
27 °F

Clear.


Feels Like: 27 °F
Forecast: 27 / 41 °F
Wind: 1 mph from North

Location: Kyiv

Current Time: Mar 5, 2015 at 11:03:51 PM

Latest Report: Mar 5, 2015 at 10:30 PM


Visibility: 10 mi

Pressure: 30.33 "Hg

Humidity: 86%

Dew point: 23 °F

Location of KyivLocation

Historic Weather in Kyiv — Graph

°F

Kyiv temperature yesterday

Maximum temperature yesterday: 45 °F (at 3:00 PM)
Minimum temperature yesterday: 32 °F (at 8:30 PM)
Average temperature yesterday: 37 °F

Past Weeks' High & Low Weather Summary

 TemperatureHumidityPressure
High48 °F (Mar 1, 1:00 PM)100% (Feb 19, 7:00 AM)30.39 "Hg (Feb 19, 7:00 AM)
Low27 °F (Feb 18, 10:00 PM)45% (Mar 5, 4:00 PM)29.74 "Hg (Mar 3, 3:00 AM)
Average37 °F85%30.02 "Hg
* Reported Feb 18 10:00 PM — Mar 5 10:00 PM, Kyiv, Weather by CustomWeather, © 2015

Note: Actual official high and low records may vary slightly from our data, if they occured in-between our weather recording intervals... More about our weather records

Advertising

Kyiv weather history for previous 24 hours

 ConditionsComfort  
Time TempWeatherWind HumidityBarometerVisibility
10:00 PM
Thu, Mar 5
30 °FClear.1 mph75%30.33 "Hg10 mi
9:30 PM32 °FClear.3 mph69%30.30 "Hg10 mi
9:00 PM34 °FPassing clouds.3 mph65%30.30 "HgN/A
8:30 PM34 °FClear.6 mph65%30.30 "Hg10 mi
8:00 PM36 °FClear.6 mph60%30.27 "Hg10 mi
7:30 PM37 °FClear.6 mph56%30.27 "HgN/A
7:00 PM36 °FClear.6 mph56%30.27 "Hg4 mi
6:30 PM37 °FClear.3 mph52%30.27 "Hg10 mi
6:00 PM37 °FClear.6 mph52%30.27 "Hg10 mi
5:30 PM39 °FSunny.8 mph48%30.24 "Hg10 mi
5:00 PM39 °FSunny.13 mph48%30.24 "Hg10 mi
4:30 PM41 °FSunny.13 mph45%30.24 "Hg10 mi
4:00 PM41 °FPartly sunny.15 mph45%30.24 "HgN/A
3:30 PM43 °FPartly sunny.13 mph46%30.21 "HgN/A
3:00 PM41 °FPartly sunny.13 mph53%30.24 "HgN/A
2:30 PM41 °FPartly sunny.10 mph49%30.24 "HgN/A
2:00 PM41 °FPartly sunny.13 mph53%30.21 "HgN/A
1:30 PM41 °FPartly sunny.15 mph53%30.21 "HgN/A
1:00 PM41 °FPartly sunny.13 mph53%30.21 "HgN/A
12:30 PM41 °FPartly sunny.13 mph57%30.21 "HgN/A
12:00 PM41 °FPartly sunny.13 mph61%30.21 "HgN/A
11:30 AM39 °FPartly sunny.13 mph65%30.21 "HgN/A
11:00 AM37 °FPartly sunny.10 mph70%30.21 "HgN/A
10:30 AM37 °FPartly sunny.13 mph70%30.21 "HgN/A
10:00 AM37 °FPartly sunny.13 mph70%30.18 "HgN/A
9:30 AM37 °FPartly sunny.15 mph75%30.18 "HgN/A
9:00 AM37 °FPartly sunny.13 mph75%30.18 "HgN/A
8:30 AM36 °FPartly sunny.10 mph81%30.18 "HgN/A
8:00 AM36 °FOvercast.13 mph81%30.18 "HgN/A
7:30 AM34 °FOvercast.13 mph87%30.15 "HgN/A
7:00 AM34 °FScattered clouds.10 mph87%30.15 "HgN/A
6:30 AM34 °FPassing clouds.10 mph87%30.15 "HgN/A
6:00 AM32 °FPassing clouds.8 mph80%30.15 "HgN/A
5:30 AM36 °FPassing clouds.10 mph75%30.15 "HgN/A
5:00 AM36 °FPassing clouds.13 mph75%30.15 "HgN/A
4:00 AM34 °FPassing clouds.6 mph87%30.12 "HgN/A
3:30 AM32 °FPassing clouds.8 mph93%30.12 "HgN/A
3:00 AM34 °FOvercast.10 mph87%30.12 "HgN/A
2:30 AM34 °FOvercast.10 mph87%30.12 "HgN/A
2:00 AM36 °FOvercast.10 mph81%30.12 "HgN/A
1:30 AM36 °FOvercast.13 mph81%30.12 "HgN/A
1:00 AM36 °FOvercast.13 mph81%30.12 "HgN/A
12:30 AM36 °FOvercast.15 mph87%30.09 "HgN/A
12:00 AM37 °FLight rain. Mostly cloudy.13 mph87%30.09 "HgN/A
11:00 PM
Wed, Mar 4
37 °FPassing clouds.13 mph81%30.07 "HgN/A
Weather by CustomWeather, © 2015

See weather overviewHow to use our weather pages